Simultaneous Nadir Overpasses (SNOs) Predictions

Prediction of SNOs between FY3D and AQUA Satellite Orbit:

Table of predicted SNOs for the next 14.0 days since TLE Epoch: 10/18/2025
Index Date (FY3D) Time (FY3D) Lat,Lon (FY3D) SZA (FY3D ) Date (AQUA) Time (AQUA) Lat,Lon (AQUA) SZA (AQUA ) Distance(km) Time Diff (sec)
1 10/19/2025 04:54:38 79.39, 99.05 89.42 10/19/2025 04:54:49 79.40, 98.97 89.42 1.67 11
2 10/19/2025 05:44:03 -76.30, -76.39 93.33 10/19/2025 05:42:50 -76.09, -77.75 93.63 43.33 73
3 10/21/2025 13:35:29 -80.75, 131.16 87.79 10/21/2025 13:36:43 -81.04, 131.66 87.56 33.20 74
4 10/21/2025 14:25:17 79.40, -43.62 90.28 10/21/2025 14:25:06 79.40, -43.55 90.28 1.66 11
5 10/23/2025 23:05:14 -79.49, 5.68 88.80 10/23/2025 23:06:07 -79.50, 5.58 88.80 2.07 53
6 10/23/2025 23:55:52 79.29, 174.75 91.00 10/23/2025 23:55:19 79.30, 174.68 91.01 1.56 33
7 10/26/2025 08:35:52 -79.51,-137.07 87.95 10/26/2025 08:36:21 -79.51,-137.01 87.96 1.21 29
8 10/26/2025 09:26:29 79.28, 32.26 91.81 10/26/2025 09:25:32 79.27, 32.33 91.81 1.57 57
9 10/28/2025 18:06:26 -79.38, 81.52 87.30 10/28/2025 18:06:31 -79.38, 81.42 87.29 2.09 5
10 10/31/2025 02:46:24 79.53, 130.23 93.65 10/31/2025 02:47:30 79.54, 130.14 93.65 1.95 66



Historial Predications of SNOs between FY3D and AQUA
